Location: Aranbee
(34.0885°N, 118.2342°W)
Time: 17:53:28
(UTC+00:00)

A-11 Canister half - Pass Details

Date: 07 August 2021
Orbit: 1514 x 1685 km, 47.2° (Epoch: 17 September)

Event Time Altitude Azimuth Distance (km) Brightness Sun altitude
Rises 02:55:31 0° 295° (WNW) 4,832 15.0 -2.1°
Reaches altitude 10° 02:58:55 10° 303° (WNW) 3,869 13.0 -2.8°
Maximum altitude 03:08:09 41° 11° (N) 2,268 10.1 -4.5°
Drops below altitude 10° 03:17:35 10° 79° (E) 3,947 10.7 -6.3°
Enters shadow 03:20:34 - 86° (E) 4,790 11.0 -6.9°
